x

9052030 - Oswego, Ny (osgn6) Weather Station

8:24pm - Sat 25th Apr 2015 All times are CDT. -5 hours from GMT.

  • Wind
    3mph
  • Air Temp 39°f
  • Sea Pressure 1009.6mb
  • 9052030 - Oswego, Ny
  • 9052030 - Oswego, Ny

More Historic Weather Station data

Upgrade to MSW Pro to gain access to the past 30 days of data for over 8000 Wavebouys and Weather Stations around the globe.

Join Pro

Comparision Forecast

View Surf forecast
   
Sat 04/25 8:24pm 3
mph
1009.6mb 39f
8:18pm 2 3 mph 1009.6mb 38f
8:12pm 2 5 mph 1009.6mb 38f
8:06pm 2 5 mph 1009.6mb 38f
8:00pm 3 6 mph 1009.5mb 38f
7:54pm 3 5 mph 1009.5mb 38f
7:48pm 2 3 mph 1009.5mb 38f
7:42pm 1 2 mph 1009.5mb 37f
7:36pm  -  2 mph 1009.4mb 37f
7:30pm  -  1 mph 1009.4mb 37f
7:24pm  -  2 mph 1009.4mb 38f
7:18pm 1 2 mph 1009.4mb 38f
7:12pm 1 2 mph 1009.3mb 38f
7:06pm 1 3 mph 1009.3mb 38f
7:00pm 2 3 mph 1009.3mb 38f
6:54pm 1 3 mph 1009.3mb 38f
6:48pm 1 2 mph 1009.3mb 38f
6:42pm 2 3 mph 1009.4mb 38f
6:36pm 2 5 mph 1009.3mb 39f
6:30pm 3 5 mph 1009.4mb 39f
6:24pm 2 6 mph 1009.4mb 39f
6:18pm 5 7 mph 1009.3mb -
6:12pm 6 7 mph 1009.3mb 39f
6:06pm 6 9 mph 1009.3mb 39f
6:00pm 8 9 mph 1009.3mb 39f
5:54pm 8 9 mph 1009.2mb 39f
5:48pm 8 10 mph - -
5:42pm 9 10 mph 1009mb 39f
5:36pm 7 9 mph 1009.1mb 39f
5:30pm 7 9 mph 1009.1mb 39f
5:24pm 8 9 mph 1009.1mb 39f
5:18pm 8 9 mph - -
5:12pm 8 9 mph 1009.4mb 39f
5:06pm 8 10 mph 1009.5mb 39f
5:00pm 7 10 mph 1009.6mb 40f
4:54pm 8 10 mph 1009.5mb 40f
4:48pm 8 11 mph 1009.6mb 40f
4:42pm 10 11 mph 1009.7mb 40f
4:36pm 10 14 mph 1009.8mb 40f
4:30pm 11 14 mph 1009.9mb 39f
4:24pm 13 14 mph 1009.9mb 40f
4:18pm 11 14 mph 1009.9mb -
4:12pm 13 15 mph 1010mb 40f
4:06pm 13 15 mph 1010mb 40f
4:00pm 14 16 mph 1010mb 40f
3:54pm 14 16 mph 1010.2mb 40f
3:48pm 14 16 mph 1010.3mb 40f
3:42pm 13 16 mph 1010.4mb 40f
3:36pm 14 16 mph 1010.4mb 40f
3:30pm 14 17 mph 1010.5mb 39f
3:24pm 14 16 mph 1010.5mb 40f
3:18pm 13 15 mph 1010.6mb 39f
3:12pm 13 14 mph 1010.7mb 39f
3:06pm 13 15 mph 1010.8mb 40f
3:00pm 11 15 mph 1010.9mb 39f
2:54pm 13 15 mph 1010.9mb 39f
2:42pm 13 16 mph 1011mb 39f
2:36pm 14 16 mph 1011.1mb 39f
2:30pm 14 16 mph 1011.2mb 39f
2:24pm 14 16 mph 1011.3mb 39f
2:18pm 13 14 mph - -
2:12pm 11 14 mph 1011.5mb 39f
2:06pm 11 14 mph 1011.5mb 39f
2:00pm 10 11 mph 1011.5mb 39f
1:54pm 10 13 mph 1011.6mb 39f
1:48pm 10 13 mph 1011.7mb 39f
1:42pm 9 14 mph 1011.8mb 39f
1:36pm 10 13 mph 1011.9mb 39f
1:30pm 10 13 mph 1012.1mb 38f
1:24pm 11 13 mph 1012.2mb 38f
1:18pm 11 13 mph 1012.3mb 39f
1:12pm 11 13 mph 1012.3mb 38f
1:06pm 10 14 mph 1012.5mb 38f
1:00pm 11 14 mph 1012.6mb 39f
12:54pm 10 13 mph 1012.8mb 38f
12:48pm 11 13 mph 1012.9mb 38f
12:36pm 11 14 mph 1013.1mb 38f
12:30pm 13 14 mph 1013.1mb 37f
12:24pm 14 15 mph 1013.2mb 38f
12:18pm 14 16 mph 1013.3mb 37f
12:12pm 14 16 mph 1013.3mb 38f
12:06pm 14 15 mph 1013.3mb 38f
12:00pm 14 16 mph 1013.3mb 37f
11:54am 14 16 mph 1013.4mb 38f
11:42am 15 17 mph 1013.6mb 38f
11:36am 14 16 mph 1013.6mb 38f
11:24am 14 16 mph 1013.7mb 38f
11:18am 14 16 mph 1013.7mb 38f
11:12am 14 16 mph 1013.7mb 38f
11:06am 14 16 mph 1013.8mb 37f
11:00am 14 16 mph 1013.8mb 37f
10:54am 14 16 mph 1013.9mb 38f
10:48am 14 17 mph 1013.9mb 37f
10:42am 14 16 mph 1013.9mb 37f
10:36am 15 16 mph 1014mb 37f
10:24am 15 18 mph 1013.9mb 37f
10:18am 15 18 mph 1013.9mb 37f
10:06am 14 17 mph 1013.9mb 36f
10:00am 15 20 mph 1013.9mb 37f
9:54am 15 16 mph 1013.9mb 36f
9:48am 14 16 mph 1013.9mb 36f
9:42am 13 15 mph 1013.8mb 37f
9:36am 11 14 mph 1013.9mb 36f
9:18am 11 13 mph 1013.8mb 36f
9:06am 9 11 mph 1013.8mb 37f
9:00am 9 10 mph 1013.8mb 37f
8:54am 9 11 mph 1013.9mb 36f
8:48am 9 11 mph 1013.8mb 36f
8:42am 9 11 mph 1013.8mb 36f
8:36am 9 10 mph 1013.8mb 36f
8:24am 8 10 mph 1013.9mb 36f
8:06am 9 10 mph 1014mb 35f
8:00am 9 10 mph 1014.2mb 35f
7:54am 9 11 mph 1014.2mb 35f
7:48am 9 10 mph 1014.2mb 35f
7:42am 9 11 mph 1014.2mb 35f
7:36am 9 11 mph 1014.3mb 35f
7:30am 9 11 mph - -
7:24am 9 11 mph 1014.4mb 35f
7:18am 10 11 mph 1014.4mb 35f
7:06am 9 11 mph 1014.5mb 35f
7:00am 10 11 mph 1014.4mb 35f
6:54am 10 13 mph 1014.3mb 35f
6:48am 11 13 mph 1014.3mb 35f
6:42am 11 13 mph 1014.4mb 35f
6:36am 11 13 mph 1014.3mb 35f
6:24am 10 13 mph 1014.2mb 34f
6:18am 10 13 mph 1014.2mb 34f
6:12am 9 14 mph 1014.2mb 34f
6:06am 10 14 mph 1014.1mb 34f
5:54am 14 15 mph 1014.1mb 35f
5:48am 13 14 mph 1014.2mb 34f
5:42am 11 14 mph 1014.2mb 34f
5:36am 13 15 mph 1014.3mb 34f
5:30am 13 16 mph 1014.2mb 34f
5:24am 16 17 mph 1014.1mb 34f
5:18am 15 17 mph 1014.1mb 34f
5:12am 14 16 mph 1014.1mb 34f
5:06am 15 17 mph 1014mb 34f
5:00am 15 17 mph 1014mb 35f
4:54am 15 17 mph 1014mb 35f
4:48am 15 16 mph 1014mb -
4:42am 14 17 mph 1014mb 35f
4:36am 14 16 mph 1014.1mb 35f
4:30am 14 16 mph 1014.1mb 35f
4:24am 15 16 mph 1014.1mb 35f
4:18am 15 16 mph 1014mb -
4:12am 15 16 mph 1013.9mb 35f
4:06am 15 17 mph 1014mb 35f
4:00am 16 18 mph 1013.9mb 35f
3:54am 16 18 mph 1013.9mb 35f
3:48am 15 18 mph - -
3:42am 17 20 mph 1013.9mb 35f
3:36am 16 18 mph 1013.9mb 35f
3:30am 16 18 mph 1013.9mb 35f
3:24am 16 18 mph 1013.9mb 35f
3:18am 16 18 mph 1013.8mb 35f
3:12am 15 18 mph 1013.8mb 35f
3:06am 17 20 mph 1013.7mb 35f
3:00am 16 18 mph 1013.6mb 35f
2:54am 16 18 mph 1013.6mb 35f
2:48am 16 18 mph 1013.6mb -
2:42am 16 20 mph 1013.6mb 35f
2:36am 17 21 mph 1013.6mb 35f
2:30am 17 20 mph 1013.7mb 35f
2:24am 18 21 mph 1013.8mb 35f
2:18am 17 21 mph 1013.8mb -
2:12am 18 21 mph 1013.8mb 35f
2:06am 17 20 mph 1013.8mb 36f
2:00am 16 18 mph 1013.9mb 36f
1:30am 16 18 mph 1013.9mb 35f
1:12am 17 20 mph 1014.1mb -
1:00am 16 22 mph 1014.2mb 36f
12:42am 18 22 mph 1014.2mb 36f
12:36am 18 21 mph 1014.1mb 36f
12:30am 18 22 mph 1014mb 36f
12:24am 21 23 mph 1014mb 36f
12:18am 21 23 mph 1014.1mb 36f
12:12am 22 24 mph 1014.2mb 36f
12:06am 20 24 mph 1014.1mb 36f
12:00am 22 24 mph 1014.1mb 36f
Fri 04/24 11:42pm 23 29 mph 1014.2mb 36f
11:36pm 22 26 mph 1014.3mb 36f
11:30pm 23 26 mph 1014.3mb 36f
11:24pm 22 26 mph 1014.3mb 36f
11:18pm 22 26 mph 1014.4mb 37f
11:12pm 21 29 mph 1014.4mb 37f
11:06pm 21 25 mph 1014.4mb 36f
10:54pm 21 26 mph 1014.6mb 37f
10:48pm 21 26 mph 1014.6mb 37f
10:42pm 21 24 mph 1014.6mb 37f
10:36pm 22 25 mph 1014.6mb 37f
10:30pm 21 24 mph 1014.5mb 37f
10:24pm 21 25 mph 1014.6mb 37f
10:18pm 21 26 mph 1014.5mb -
10:12pm 21 24 mph 1014.5mb 37f
10:06pm 21 26 mph 1014.5mb 37f
10:00pm 23 26 mph 1014.6mb 37f
9:54pm 24 28 mph 1014.6mb 37f
9:42pm 22 26 mph 1014.6mb 37f
9:36pm 21 28 mph 1014.6mb 37f
9:30pm 22 25 mph 1014.6mb 37f
9:24pm 22 25 mph 1014.7mb 37f
9:18pm 20 23 mph 1014.7mb 37f
9:12pm 17 22 mph 1014.7mb 37f
9:06pm 20 24 mph 1014.8mb 37f
9:00pm 17 21 mph 1014.8mb 37f
8:54pm 21 24 mph 1014.7mb 37f
8:42pm 17 21 mph 1014.8mb 37f
8:36pm 20 22 mph 1014.9mb 37f
8:30pm 20 23 mph 1014.9mb 37f
8:24pm 18 24 mph 1014.9mb 37f
8:18pm 22 25 mph - -
8:12pm 18 23 mph 1014.8mb 37f
8:06pm 20 24 mph 1014.8mb 37f
8:00pm 17 24 mph 1014.8mb 37f
7:54pm 18 25 mph 1014.8mb 37f
7:48pm 21 24 mph - -
7:42pm 17 22 mph 1014.8mb 37f
7:36pm 17 24 mph 1014.8mb 37f
7:30pm 18 24 mph 1014.7mb 37f
7:24pm 16 23 mph 1014.7mb 37f
7:18pm 17 23 mph - -
7:12pm 18 24 mph 1014.7mb 37f
7:06pm 15 22 mph 1014.6mb 37f
7:00pm 16 23 mph 1014.7mb 37f
6:54pm 16 22 mph 1014.6mb 37f
6:48pm 15 22 mph 1014.6mb -
6:42pm 17 22 mph 1014.6mb 37f
6:36pm 18 21 mph 1014.5mb 37f
6:30pm 16 21 mph 1014.5mb 37f
6:24pm 14 22 mph 1014.5mb 37f
6:18pm 16 21 mph 1014.5mb 37f
6:12pm 17 22 mph 1014.5mb 37f
6:06pm 18 23 mph 1014.4mb 37f
6:00pm 18 23 mph 1014.5mb 37f
5:54pm 18 24 mph 1014.6mb 37f
5:42pm 22 25 mph 1014.6mb 37f
5:36pm 21 24 mph 1014.6mb 37f
5:30pm 21 25 mph 1014.6mb 37f
5:24pm 18 29 mph 1014.6mb 37f
5:18pm 21 26 mph 1014.6mb -
5:12pm 24 28 mph 1014.6mb 37f
5:06pm 22 30 mph 1014.6mb 37f
5:00pm 20 28 mph 1014.6mb 37f
4:54pm 20 23 mph 1014.6mb 37f
4:42pm 22 29 mph 1014.6mb 37f
4:36pm 22 28 mph 1014.6mb 37f
4:30pm 21 26 mph 1014.6mb 37f
4:24pm 21 26 mph 1014.6mb 37f
4:18pm 20 25 mph 1014.6mb 37f
4:12pm 23 28 mph 1014.6mb 37f
4:06pm 21 26 mph 1014.6mb 37f
4:00pm 22 26 mph 1014.6mb 37f
3:54pm 22 28 mph 1014.5mb 37f
3:48pm 22 28 mph - -
3:42pm 22 25 mph 1014.5mb 36f
3:36pm 23 25 mph 1014.5mb 37f
3:30pm 22 28 mph 1014.5mb 36f
3:24pm 24 29 mph 1014.5mb 36f
3:18pm 23 26 mph - -
3:12pm 23 28 mph 1014.5mb 36f
3:06pm 24 29 mph 1014.5mb 36f
3:00pm 23 29 mph 1014.6mb 36f
2:54pm 24 29 mph 1014.5mb 36f
2:48pm 24 28 mph 1014.4mb 36f
2:42pm 23 28 mph 1014.4mb 36f
2:36pm 24 28 mph 1014.3mb 36f
2:30pm 24 28 mph 1014.3mb 36f
2:24pm 22 25 mph 1014.3mb 36f
2:18pm 22 25 mph - -
2:12pm 23 29 mph 1014.3mb 35f
2:06pm 24 29 mph 1014.3mb 36f
2:00pm 25 31 mph 1014.4mb 36f
1:54pm 23 30 mph 1014.4mb 36f
1:48pm 24 30 mph 1014.3mb 36f
1:42pm 25 30 mph 1014.4mb 35f
1:36pm 26 30 mph 1014.4mb 35f
1:30pm 23 25 mph 1014.5mb 35f
1:24pm 20 25 mph 1014.5mb 35f
1:18pm 21 25 mph 1014.5mb 35f
1:12pm 23 29 mph 1014.6mb 35f
1:06pm 25 31 mph 1014.6mb 35f
12:54pm 25 29 mph 1014.4mb 35f
12:48pm 25 28 mph 1014.4mb 35f
12:42pm 24 28 mph 1014.4mb 35f
12:36pm 23 28 mph 1014.3mb 35f
12:24pm 24 26 mph 1014.3mb 36f
12:18pm 24 29 mph 1014.2mb 36f
12:12pm 22 28 mph 1014.2mb 35f
12:06pm 24 29 mph 1014.3mb 35f
12:00pm 23 26 mph 1014.3mb 35f
11:54am 23 28 mph 1014.4mb 34f
11:48am 23 29 mph 1014.3mb 34f
11:42am 24 29 mph 1014.3mb 35f
11:36am 24 29 mph 1014.2mb 35f
11:24am 22 28 mph 1014.2mb 35f
11:18am 25 30 mph 1014.1mb 35f
11:12am 24 29 mph 1014.2mb 35f
11:06am 22 28 mph 1014.2mb 35f
11:00am 25 29 mph 1014.2mb 35f
10:54am 24 29 mph 1014.2mb 35f
10:48am 24 29 mph 1014.2mb 35f
10:42am 24 29 mph 1014.2mb 35f
10:36am 25 31 mph 1014.1mb 35f
10:30am 26 30 mph 1014.1mb 35f
10:24am 26 30 mph 1014.1mb 35f
10:18am 25 30 mph - -
10:12am 28 31 mph 1014mb 35f
10:06am 26 30 mph 1014mb 35f
10:00am 25 32 mph 1014mb 35f
9:54am 23 29 mph 1014mb 35f
9:48am 26 30 mph 1013.9mb 35f
9:42am 28 31 mph 1013.9mb 35f
9:36am 26 31 mph 1013.9mb 35f
9:30am 25 31 mph 1013.9mb -
9:24am 26 31 mph 1013.9mb 35f
9:18am 28 33 mph 1013.9mb -
9:12am 29 32 mph 1013.8mb 35f
9:06am 23 29 mph 1013.7mb 35f
9:00am 24 30 mph 1013.7mb 35f
8:54am 25 29 mph 1013.7mb 35f
8:48am 25 30 mph 1013.7mb -
8:42am 26 34 mph 1013.6mb 35f
8:36am 29 33 mph 1013.7mb 35f
8:30am 26 33 mph 1013.6mb 35f
8:24am 21 25 mph 1013.6mb 35f
8:18am 22 26 mph 1013.6mb 35f
8:12am 23 28 mph 1013.5mb 35f
8:06am 23 28 mph 1013.4mb 35f
8:00am 24 28 mph 1013.4mb -
7:54am 23 28 mph 1013.5mb 35f
7:48am 23 28 mph 1013.5mb 35f
7:42am 24 28 mph 1013.5mb 35f
7:36am 24 29 mph 1013.5mb 34f
7:24am 21 24 mph 1013.4mb 34f
7:18am 22 25 mph 1013.4mb 34f
7:12am 23 28 mph 1013.3mb 34f
7:06am 23 30 mph 1013.3mb 34f
7:00am 25 32 mph 1013.2mb 35f
6:54am 31 37 mph 1013.1mb 35f
6:42am 28 30 mph 1013mb 35f
6:36am 25 31 mph 1013mb 35f
6:30am 25 29 mph 1013mb 34f
6:24am 28 31 mph 1013mb 35f
6:18am 24 29 mph - -
6:12am 24 30 mph 1012.8mb 35f
6:06am 23 29 mph 1012.7mb 35f
6:00am 25 29 mph 1012.6mb 35f
5:54am 24 29 mph 1012.5mb 34f
5:48am 23 29 mph 1012.4mb -
5:42am 23 29 mph 1012.4mb 34f
5:36am 25 31 mph 1012.6mb 35f
5:30am 26 30 mph 1012.6mb 35f
5:24am 26 32 mph 1012.6mb 35f
5:18am 25 30 mph 1012.5mb 35f
5:12am 24 32 mph 1012.6mb 35f
5:06am 24 28 mph 1012.5mb 35f
5:00am  -  mph 1012.5mb 35f
4:54am 25 28 mph 1012.5mb 35f
4:48am 23 29 mph - 34f
4:42am 22 24 mph - 34f
4:36am 22 26 mph - 34f
4:30am 22 29 mph - -
4:24am 25 31 mph - -
4:18am 26 30 mph - 35f
4:12am 25 32 mph - 35f
4:06am 25 29 mph - 35f
4:00am 24 30 mph 1012.6mb 35f
3:54am 26 29 mph 1012.6mb 35f
3:42am 25 30 mph 1012.6mb 35f
3:36am 23 30 mph 1012.5mb 35f
3:30am 23 30 mph 1012.6mb 35f
3:24am 26 30 mph 1012.5mb 35f
3:18am 24 30 mph 1012.5mb 35f
3:12am 26 30 mph 1012.5mb 35f
3:06am 28 31 mph 1012.4mb 35f
3:00am 29 32 mph 1012.3mb 35f
2:54am 29 32 mph 1012.3mb 35f
2:48am 30 33 mph - -
2:42am 28 31 mph 1012.2mb 35f
2:36am 28 33 mph 1012.1mb 35f
2:30am 28 32 mph 1012.1mb 35f
2:24am 28 32 mph 1012.1mb 35f
2:18am 26 34 mph 1012mb -
2:12am 24 29 mph 1012mb 35f
2:06am 24 33 mph 1012.1mb 35f
2:00am 28 30 mph 1012mb 35f
1:42am 25 32 mph 1012mb 35f
1:30am 29 33 mph 1012mb 35f
1:18am 24 30 mph 1011.9mb 35f
1:00am 26 30 mph 1011.9mb 35f
12:48am 24 28 mph 1011.9mb 35f
12:42am 24 30 mph 1011.9mb 35f
12:36am 23 28 mph 1011.9mb 35f
12:30am 23 28 mph 1011.9mb 35f
12:24am 24 29 mph 1011.9mb 35f
12:18am 25 29 mph 1011.8mb 35f
12:12am 21 30 mph 1011.8mb 35f
12:06am 25 29 mph 1011.8mb 35f
Thu 04/23 11:54pm 23 29 mph 1011.8mb 35f
11:48pm 24 30 mph 1011.8mb 35f
11:42pm 25 28 mph 1011.8mb 35f
11:36pm 23 30 mph 1011.8mb 35f
11:30pm 23 29 mph 1011.8mb 35f
11:24pm 24 29 mph 1011.8mb 35f
11:18pm 25 30 mph 1011.8mb 35f
11:12pm 28 31 mph 1011.8mb 35f
11:06pm 24 30 mph 1011.7mb 35f
10:54pm 24 29 mph 1011.7mb 35f
10:48pm 25 30 mph 1011.8mb 35f
10:42pm 22 26 mph 1011.7mb 35f
10:36pm 24 28 mph 1011.7mb 35f
10:24pm 24 28 mph 1011.6mb 35f
10:18pm 23 25 mph 1011.6mb 35f
10:12pm 22 25 mph 1011.7mb 35f
10:06pm 22 26 mph 1011.7mb 35f
9:54pm 24 29 mph 1011.7mb 35f
9:48pm 25 31 mph 1011.7mb 35f
9:42pm 24 29 mph 1011.7mb 35f
9:36pm 24 29 mph 1011.8mb 35f
9:30pm 24 30 mph 1011.8mb 35f
9:24pm 22 28 mph 1011.7mb 35f
9:18pm 23 26 mph 1011.7mb 35f
9:06pm 24 29 mph 1011.7mb 35f
9:00pm 28 34 mph 1011.7mb 36f
8:54pm 24 31 mph 1011.6mb 36f
8:48pm 25 30 mph 1011.6mb 36f
8:42pm 22 28 mph 1011.6mb 36f
8:36pm 23 29 mph 1011.5mb 36f
8:30pm 23 30 mph 1011.5mb 36f
8:24pm 23 28 mph 1011.5mb 36f
8:12pm 25 30 mph 1011.3mb 36f
8:06pm 22 28 mph 1011.3mb 36f
8:00pm 22 29 mph 1011.3mb 36f
7:54pm 25 31 mph 1011.2mb 36f
7:48pm 25 32 mph 1011.2mb 36f
7:42pm 25 30 mph 1011.1mb 36f
7:36pm 28 32 mph 1011.1mb 36f
7:30pm 25 34 mph 1011mb 36f
7:24pm 28 33 mph 1010.9mb 36f
7:12pm 24 31 mph 1010.8mb 36f
7:06pm 29 36 mph 1010.8mb 37f
7:00pm 28 33 mph 1010.7mb -
6:54pm 25 33 mph 1010.7mb 36f
6:48pm 28 33 mph 1010.7mb 37f
6:42pm 26 34 mph 1010.7mb 36f
6:36pm 29 36 mph 1010.6mb 36f
6:30pm 30 36 mph 1010.5mb 36f
6:24pm 28 36 mph 1010.5mb 36f
6:18pm 28 34 mph 1010.4mb 36f
6:12pm 29 34 mph 1010.4mb 36f
6:06pm 29 33 mph 1010.4mb 36f
6:00pm 28 33 mph 1010.3mb 36f
5:54pm 26 33 mph 1010.3mb 36f
5:48pm 29 36 mph 1010.2mb 36f
5:42pm 29 36 mph 1010.2mb 36f
5:36pm 29 34 mph 1010.1mb 36f
5:30pm 26 33 mph 1010.1mb 36f
5:24pm 29 37 mph 1010mb 36f
5:18pm 31 37 mph 1009.9mb 36f
5:12pm 32 38 mph 1009.9mb 36f
5:06pm 29 37 mph 1009.8mb 36f
5:00pm 30 37 mph 1009.8mb -
4:54pm 28 36 mph 1009.7mb 36f
4:48pm 30 37 mph 1009.6mb 37f
4:42pm 30 36 mph 1009.5mb 37f
4:36pm 28 37 mph 1009.4mb 36f
4:30pm 29 37 mph 1009.3mb -
4:24pm 28 37 mph 1009.3mb 36f
4:18pm 30 37 mph 1009.2mb 36f
4:12pm 31 37 mph 1009.2mb 36f
4:06pm 31 37 mph 1009.2mb 36f
4:00pm 31 38 mph 1009mb 36f
3:54pm 29 38 mph 1009mb 37f
3:48pm 30 36 mph 1008.9mb 36f
3:42pm 31 37 mph 1008.6mb 36f
3:36pm 29 39 mph 1008.6mb 36f
3:24pm 30 39 mph 1008.4mb 36f
3:18pm 32 38 mph 1008.4mb 36f
3:12pm 31 39 mph 1008.4mb 36f
3:06pm 29 38 mph 1008.3mb 36f
3:00pm 29 36 mph - -
2:54pm 29 34 mph 1008.3mb 36f
2:48pm 30 38 mph 1008.3mb 36f
2:42pm 31 38 mph 1008.2mb 36f
2:36pm 26 37 mph 1008.2mb 36f
2:24pm 33 39 mph 1008.1mb 36f
2:18pm 30 38 mph 1008.1mb 36f
2:12pm 25 37 mph 1008mb 36f
2:06pm 34 40 mph 1008.1mb 36f
1:54pm 28 34 mph 1008.1mb 36f
1:48pm 25 37 mph 1008.1mb 36f
1:42pm 32 39 mph 1008mb 35f
1:36pm 30 37 mph 1008.1mb 36f
1:30pm 28 36 mph 1008mb 35f
1:24pm 31 37 mph 1008mb 36f
1:18pm 29 38 mph 1007.9mb 35f
1:12pm 32 43 mph 1008mb 36f
1:06pm 29 34 mph 1007.9mb 35f
1:00pm 26 33 mph - -
12:54pm 26 39 mph 1007.9mb 34f
12:48pm 34 40 mph 1007.8mb 35f
12:36pm 30 37 mph 1007.8mb 35f
12:30pm 25 34 mph 1007.7mb 35f
12:24pm 26 33 mph 1007.7mb 35f
12:18pm 28 38 mph 1007.6mb 35f
12:12pm 29 36 mph 1007.5mb 35f
12:06pm 30 37 mph 1007.5mb 35f
11:54am 30 37 mph 1007.6mb 35f
11:48am 26 34 mph 1007.6mb 35f
11:36am 31 36 mph 1007.5mb 35f
11:30am 25 37 mph 1007.5mb 35f
11:24am 30 34 mph 1007.4mb 35f
11:18am 25 34 mph 1007.4mb 35f
11:12am 25 34 mph 1007.3mb 35f
11:06am 28 33 mph 1007.3mb 35f
11:00am 28 34 mph 1007.3mb -
10:54am 26 33 mph 1007.3mb 35f
10:48am 29 33 mph 1007.2mb 35f
10:36am 29 33 mph 1007.2mb 35f
10:30am 26 34 mph 1007.2mb 35f
10:24am 28 34 mph 1007.2mb 35f
10:18am 24 31 mph 1007.1mb 35f
10:12am 24 33 mph 1007.1mb 35f
10:06am 26 33 mph 1007.1mb 35f
9:54am 25 29 mph 1007mb 35f
9:48am 21 26 mph 1007.1mb 35f
9:36am 22 26 mph 1007mb 34f
9:30am 24 29 mph 1007mb 33f
9:24am 24 28 mph 1007mb 33f
9:18am 16 22 mph 1007mb 33f
9:12am 17 22 mph 1007mb 32f
9:06am 18 22 mph 1007mb 33f
9:00am 17 21 mph 1006.9mb 32f
8:54am 18 21 mph 1006.9mb 32f
8:48am 16 20 mph - -
8:42am 14 16 mph 1006.9mb 33f
8:36am 13 15 mph 1006.9mb 32f
8:30am 13 16 mph 1006.8mb 32f
8:24am 15 18 mph 1006.8mb 32f
8:18am 15 20 mph 1006.7mb -
8:12am 16 20 mph 1006.7mb 32f
8:06am 16 21 mph 1006.6mb 33f
8:00am 16 21 mph 1006.5mb 33f
7:54am 17 22 mph 1006.5mb 32f
7:48am 20 22 mph - -
7:42am 21 24 mph 1006.3mb 33f
7:36am 18 22 mph 1006.3mb 32f
7:30am 15 18 mph 1006.4mb 32f
7:24am 16 21 mph 1006.3mb 32f
7:18am 14 17 mph 1006.3mb 31f
7:12am 15 20 mph 1006.2mb 32f
7:06am 18 22 mph 1006.2mb 33f
7:00am 17 21 mph 1006.2mb 34f
6:54am 16 20 mph 1006.1mb 34f
6:48am 16 21 mph - -
6:42am 16 21 mph 1006mb 35f
6:36am 14 18 mph 1006mb 35f
6:30am 14 20 mph 1006.1mb 35f
6:24am 14 24 mph 1006.1mb 35f
6:18am 15 20 mph 1006.1mb -
6:12am 16 20 mph 1006.1mb 35f
6:06am 14 22 mph 1006mb 35f
6:00am 18 23 mph 1006mb 35f
5:54am 15 20 mph 1005.9mb 35f
5:48am 16 20 mph 1005.9mb -
5:42am 16 21 mph 1005.9mb 35f
5:36am 16 20 mph 1005.9mb 35f
5:30am 16 21 mph 1005.8mb 35f
5:24am 16 21 mph 1005.8mb 35f
5:18am 16 21 mph 1005.8mb 35f
5:12am 17 21 mph 1005.8mb 35f
5:06am 17 21 mph 1005.8mb 35f
5:00am 15 22 mph 1005.7mb -
4:54am 17 21 mph 1005.7mb 35f
4:30am 16 22 mph 1005.5mb 35f
4:24am 20 23 mph 1005.5mb 35f
4:18am 18 22 mph - -
4:12am 18 23 mph - -
4:06am 20 23 mph - -
4:00am 17 24 mph 1005.4mb 35f
3:54am 20 24 mph 1005.5mb 35f
3:48am 21 24 mph 1005.4mb -
3:42am 21 24 mph 1005.4mb 35f
3:36am 21 23 mph 1005.5mb 35f
3:30am 21 25 mph 1005.4mb 35f
3:24am 21 24 mph 1005.4mb 35f
3:18am 20 24 mph 1005.5mb 35f
3:12am 18 25 mph 1005.5mb 35f
3:06am 22 25 mph 1005.5mb 35f
3:00am 18 24 mph 1005.5mb 35f
2:54am 20 24 mph 1005.5mb 35f
2:48am 17 24 mph 1005.4mb -
2:42am 18 25 mph 1005.4mb 35f
2:36am 21 25 mph 1005.4mb 35f
2:30am 22 26 mph 1005.4mb -
2:24am 22 26 mph 1005.4mb 35f
2:18am 23 28 mph 1005.4mb 35f
2:12am 22 28 mph 1005.3mb 35f
2:06am 22 29 mph 1005.3mb 35f
2:00am 22 29 mph 1005.3mb 35f
1:54am 21 25 mph 1005.3mb 36f
1:48am 22 29 mph 1005.2mb 35f
1:36am 22 29 mph 1005.2mb 35f
1:30am 21 24 mph 1005.2mb 35f
1:18am 18 28 mph 1005.3mb 35f
1:06am 20 25 mph 1005.2mb 35f
12:54am 18 29 mph 1005.3mb 35f
12:48am 20 26 mph 1005.3mb 35f
12:42am 22 30 mph 1005.3mb 35f
12:36am 23 29 mph 1005.3mb 35f
12:30am 22 32 mph 1005.4mb 35f
12:24am 28 32 mph 1005.4mb 35f
12:18am 25 31 mph 1005.4mb 36f
12:06am 25 31 mph 1005.3mb 36f
12:00am 23 28 mph 1005.3mb 36f
Wed 04/22 11:54pm 23 26 mph 1005.3mb 36f
11:48pm 22 25 mph 1005.3mb 36f
11:42pm 21 24 mph 1005.3mb 36f
11:36pm 23 26 mph 1005.3mb 36f
11:30pm 23 28 mph 1005.4mb 36f
11:24pm 23 30 mph 1005.4mb 36f
11:18pm 25 33 mph 1005.4mb 37f
11:12pm 21 28 mph - -
11:06pm 22 26 mph 1005.4mb 37f
11:00pm 21 29 mph 1005.4mb 37f
10:54pm 20 28 mph 1005.3mb 37f
10:48pm 23 29 mph 1005.3mb -
10:42pm 21 28 mph 1005.3mb 36f
10:36pm 20 26 mph 1005.2mb 36f
10:30pm 20 25 mph 1005.2mb 36f
10:24pm 21 25 mph 1005.2mb 36f
10:12pm 21 25 mph 1005.3mb 36f
10:06pm 22 25 mph 1005.3mb 36f
10:00pm 21 26 mph 1005.3mb 36f
9:54pm 21 26 mph 1005.3mb 37f
9:48pm 22 26 mph - -
9:42pm 22 30 mph 1005.3mb 37f
9:36pm 25 30 mph 1005.3mb 37f
9:30pm 23 28 mph 1005.2mb 38f
9:24pm 17 26 mph 1005.2mb 37f
9:12pm 15 20 mph 1005mb 37f
9:06pm 15 21 mph 1005mb 37f
9:00pm 15 20 mph 1005mb 37f
8:54pm 16 23 mph 1005.1mb 37f
8:48pm 16 22 mph - -
8:42pm 16 23 mph 1005.1mb 37f
8:36pm 18 29 mph 1005.1mb 38f
8:30pm 18 29 mph 1005mb 38f
8:24pm 17 24 mph 1004.8mb 38f
8:12pm 14 20 mph 1004.8mb 38f
8:06pm 15 22 mph 1004.9mb 37f
8:00pm 18 29 mph 1004.9mb 37f
7:54pm 23 29 mph 1004.9mb 36f
7:48pm 22 25 mph 1004.9mb 36f
7:42pm 22 28 mph 1004.9mb 36f
7:36pm 26 31 mph 1004.8mb 37f
7:24pm 18 24 mph 1004.4mb 39f
7:18pm 16 21 mph 1004.4mb 39f
7:12pm 14 22 mph 1004.3mb 40f
7:06pm 17 23 mph 1004.2mb 40f
7:00pm 14 20 mph 1004mb 41f
6:54pm 9 13 mph 1003.8mb 41f
6:48pm 9 13 mph 1003.6mb 41f
6:42pm 9 11 mph 1003.5mb 40f
6:36pm 8 10 mph 1003.4mb 41f
6:30pm 9 10 mph 1003.3mb 41f
6:24pm 7 9 mph 1003.3mb 41f
6:18pm 8 10 mph 1003.2mb 41f
6:06pm 10 11 mph 1003mb 42f
6:00pm 9 13 mph 1003mb 43f
5:54pm 8 10 mph 1002.9mb 43f
5:48pm 8 9 mph 1002.9mb 43f
5:42pm 6 10 mph 1002.9mb 43f
5:36pm 3 5 mph 1002.9mb 43f
5:30pm 3 6 mph 1002.8mb 43f
5:24pm 3 6 mph 1002.8mb 43f
5:18pm 3 5 mph 1002.8mb 43f
5:12pm 3
mph
1002.8mb 42f
5:06pm 2 3 mph 1002.8mb 42f
4:54pm 5 7 mph 1002.7mb 43f
4:48pm 7 9 mph 1002.6mb 43f
4:42pm 8 10 mph 1002.6mb -
4:36pm 9 10 mph 1002.5mb 44f
4:30pm 8 9 mph 1002.4mb 44f
4:24pm 7 9 mph 1002.3mb 44f
4:18pm 7 9 mph 1002.3mb 45f
4:12pm 5 7 mph 1002.2mb 44f
4:06pm 3 6 mph 1002.3mb 44f
3:54pm 6 7 mph 1002.4mb 44f
3:48pm 5
mph
1002.2mb 44f
3:42pm 2 3 mph 1002.2mb 44f
3:36pm 3
mph
1002.1mb 44f
3:30pm 3 5 mph 1002.1mb 44f
3:24pm 3 5 mph 1002.1mb 44f
3:18pm  -  2 mph 1002.2mb 45f
3:12pm 2
mph
1002.1mb 45f
3:06pm 1 2 mph 1002.1mb 44f
3:00pm 2 3 mph 1002.1mb -
2:54pm 3
mph
1002.1mb 44f
2:48pm 1 2 mph 1002.1mb 43f
2:36pm 1 3 mph 1002.2mb 43f
2:30pm 2 3 mph 1002.2mb 44f
2:24pm  -  1 mph 1002.1mb 43f
2:18pm  -  2 mph 1002.1mb 42f
2:12pm  -  2 mph 1002.2mb 42f
2:06pm 1 3 mph 1002.2mb 41f
2:00pm 1 5 mph 1002.3mb 42f
1:54pm 3 6 mph 1002.4mb 41f
1:48pm 2 6 mph 1002.3mb 41f
1:42pm 3 6 mph 1002.3mb 41f
1:36pm 5
mph
1002.3mb 41f
1:30pm 5 6 mph - -
1:24pm 6 7 mph 1002.2mb 42f
1:18pm 6 7 mph 1002.1mb 42f
1:12pm 6 7 mph 1002.1mb 42f
1:06pm 5 7 mph 1002.1mb 42f
1:00pm 6 7 mph 1002.1mb 42f
12:54pm 6 7 mph 1002.1mb 42f
12:48pm 5 6 mph 1002.2mb -
12:42pm 5 6 mph 1002.1mb 43f
12:36pm 3 5 mph 1002.2mb 43f
12:30pm 3 5 mph 1002.2mb 43f
12:24pm 3 5 mph 1002.2mb 44f
12:12pm 5 6 mph 1002.2mb 44f
12:06pm 3 5 mph 1002.2mb 42f
12:00pm 3 5 mph 1002.2mb 42f
11:54am 5
mph
1002.3mb 41f
11:48am 3 6 mph 1002.4mb -
11:42am 7 9 mph 1002.5mb 40f
11:36am 8 11 mph 1002.6mb 40f
11:30am 10 13 mph 1002.6mb 41f
11:24am 11 13 mph 1002.6mb 41f
11:18am 7 11 mph 1002.6mb -
11:12am 10 13 mph 1002.5mb 43f
11:06am 9 11 mph 1002.5mb 44f
11:00am 6 7 mph 1002.5mb 44f
10:54am 6
mph
1002.5mb 43f
10:48am 3 5 mph 1002.5mb -
10:42am 3 5 mph 1002.5mb 43f
10:36am 5 6 mph 1002.6mb 43f
10:30am 5 6 mph 1002.6mb 43f
10:24am 5 8 mph 1002.6mb 43f
10:18am 8 11 mph - -
10:12am 11 15 mph 1002.6mb 42f
10:06am 10 13 mph 1002.5mb 44f
10:00am 8 10 mph 1002.6mb 44f
9:54am 6 11 mph 1002.6mb 45f
9:42am 9 11 mph 1002.7mb 46f
9:36am 8 13 mph 1002.7mb 46f
9:30am 9 14 mph 1002.7mb 46f
9:24am 10 15 mph 1002.7mb 46f
9:18am 9 14 mph 1002.7mb -
9:12am 13 16 mph 1002.6mb 46f
9:06am 8 14 mph 1002.7mb 46f
9:00am 13 16 mph 1002.7mb 46f
8:54am 8 17 mph 1002.8mb 46f
8:48am 10 14 mph 1002.9mb -
8:42am 10 16 mph 1003mb 45f
8:36am 13 17 mph 1003mb 46f
8:30am 10 17 mph 1003mb 45f
8:24am 14 20 mph 1002.9mb 46f
8:18am 11 17 mph 1003mb 46f
8:12am 11 17 mph 1003mb 46f
8:06am 10 18 mph 1003.1mb 46f
8:00am 14 20 mph 1003.1mb 46f
7:54am 10 20 mph 1003mb 46f
7:48am 11 15 mph 1003mb 46f
7:42am 11 17 mph 1002.9mb 45f
7:36am 14 18 mph 1002.7mb 45f
7:30am 13 21 mph 1003.1mb 45f
7:24am 14 20 mph 1002.8mb 45f
7:18am 13 20 mph 1002.9mb 45f
7:12am 11 16 mph 1003.1mb 45f
7:06am 11 17 mph 1003.1mb 45f
7:00am 10 14 mph 1003mb -
6:54am 10 14 mph 1003mb 45f
6:48am 10 15 mph 1003.1mb 45f
6:42am 11 16 mph 1003mb 45f
6:36am 11 16 mph 1003.1mb 45f
6:30am 13 16 mph 1003.2mb 46f
6:24am 13 20 mph 1003.3mb 46f
6:18am 14 21 mph 1003.4mb 46f
6:12am 16 22 mph 1003.4mb 46f
6:06am 15 24 mph 1003.4mb 46f
6:00am 14 22 mph 1003.5mb 46f
5:54am 14 20 mph 1003.5mb 46f
5:42am 11 17 mph 1003.5mb 46f
5:36am 13 17 mph 1003.5mb 46f
5:30am 15 25 mph 1003.5mb 46f
5:24am 16 21 mph 1003.4mb 46f
5:18am 11 17 mph 1003.2mb 46f
5:12am 13 17 mph 1003.3mb 46f
5:06am 13 20 mph 1003.3mb 46f
5:00am 13 17 mph 1003.2mb 46f
4:54am 14 18 mph 1003mb 46f
4:48am  -  mph 1002.9mb -
4:42am 13 20 mph 1003mb -
4:36am 14 17 mph 1002.9mb -
4:30am 14 20 mph 1003mb 46f
4:24am 13 16 mph 1003mb 46f
4:18am 13 25 mph 1003mb -
4:12am 11 15 mph 1002.9mb 45f
4:06am 11 18 mph 1003mb 45f
4:00am 11 15 mph 1003.2mb 45f
3:54am 13 16 mph 1003.2mb 45f
3:48am 11 17 mph 1003.2mb -
3:42am 11 14 mph 1003.3mb 45f
3:36am 10 14 mph 1003.3mb 45f
3:30am 10 14 mph 1003.3mb 45f
3:24am 9 13 mph 1003.3mb 45f
3:18am 9 11 mph 1003.3mb 45f
3:12am 8 10 mph 1003.4mb 45f
3:06am 9 14 mph 1003.5mb 46f
3:00am 10 13 mph 1003.4mb 46f
2:54am 11 15 mph 1003.4mb 46f
2:48am 13 17 mph 1003.5mb -
2:42am 13 17 mph 1003.7mb 46f
2:36am 13 18 mph 1003.7mb 46f
2:30am 11 15 mph 1003.8mb 46f
2:24am 13 20 mph 1003.9mb 46f
2:18am 9 20 mph 1003.9mb 46f